This is the latest recevied weather packets stored in our database for station/object SV9TNF-2. If no packets are shown the sender has not sent any weather packets the latest 10 day(s).
| Time | Temp. | Humidity | Pressure | Rain* | Wind** | Luminosity | Snow |
|---|---|---|---|---|---|---|---|
| 1777952874 | 11.67° C | 88% | 1023.4 hPa | 0 mm | 5.81 m/s, 230° | - | - |
| 1777952574 | 11.67° C | 88% | 1023.4 hPa | 0 mm | 4.92 m/s, 219° | - | - |
| 1777952274 | 11.67° C | 88% | 1023.4 hPa | 0 mm | 4.47 m/s, 226° | - | - |
| 1777951974 | 11.67° C | 88% | 1023.4 hPa | 0 mm | 8.05 m/s, 198° | - | - |
| 1777951674 | 11.67° C | 88% | 1023.4 hPa | 0 mm | 4.92 m/s, 171° | - | - |
| 1777951374 | 11.67° C | 88% | 1023.4 hPa | 0 mm | 3.13 m/s, 155° | - | - |
| 1777951074 | 11.67° C | 88% | 1023.4 hPa | 0 mm | 6.71 m/s, 154° | - | - |
| 1777950774 | 11.67° C | 87% | 1023.4 hPa | 0 mm | 4.92 m/s, 207° | - | - |
| 1777950473 | 11.67° C | 87% | 1023.4 hPa | 0 mm | 4.92 m/s, 220° | - | - |
| 1777950173 | 11.67° C | 87% | 1023.4 hPa | 0 mm | 4.02 m/s, 175° | - | - |
| 1777949873 | 11.67° C | 87% | 1023.4 hPa | 0 mm | 4.92 m/s, 190° | - | - |
| 1777949573 | 12.22° C | 87% | 1023.4 hPa | 0 mm | 5.81 m/s, 255° | - | - |
| 1777949273 | 11.67° C | 87% | 1023.4 hPa | 0 mm | 3.58 m/s, 205° | - | - |
| 1777948973 | 11.67° C | 86% | 1023.4 hPa | 0 mm | 8.05 m/s, 231° | - | - |
| 1777948673 | 11.67° C | 86% | 1023.4 hPa | 0 mm | 7.6 m/s, 209° | - | - |
| 1777948372 | 12.22° C | 86% | 1023.4 hPa | 0 mm | 3.13 m/s, 184° | - | - |
| 1777948073 | 12.22° C | 86% | 1023.4 hPa | 0 mm | 6.26 m/s, 177° | - | - |
| 1777947773 | 12.22° C | 86% | 1023.4 hPa | 0 mm | 5.36 m/s, 228° | - | - |
| 1777947472 | 12.22° C | 85% | 1023.4 hPa | 0 mm | 3.13 m/s, 203° | - | - |
| 1777947172 | 12.22° C | 85% | 1023.4 hPa | 0 mm | 4.02 m/s, 245° | - | - |
| 1777946872 | 12.78° C | 85% | 1023.4 hPa | 0 mm | 3.58 m/s, 224° | - | - |
| 1777946572 | 12.78° C | 85% | 1023.4 hPa | 0 mm | 4.02 m/s, 4° | - | - |
| 1777946272 | 12.78° C | 86% | 1023.7 hPa | 0 mm | 2.68 m/s, 242° | - | - |
| 1777945972 | 12.78° C | 86% | 1023.7 hPa | 0 mm | 3.58 m/s, 274° | - | - |
| 1777945672 | 12.78° C | 86% | 1023.7 hPa | 0 mm | 1.34 m/s, 224° | - | - |
* Rain latest hour (hover to see other rain measurements)
** Current wind speed in m/s (hover to see current wind gust speed)